User: anonymous   Login
Location: Unspecified
(0.0000°N, 0.0000°E)
Time: 00:49:49
(UTC+00:00)
Language:

TerraSAR-X - Orbit

View from above orbital plane
View from above orbital plane
View from above satellite
View from above satellite

Ground track
Ground track

The orbit data is extracted from the following two-line orbital elements,

1 31698U 07026A   21339.81961806  .00000705  00000-0  36767-4 0  9994
2 31698  97.4451 345.1897 0001491  93.7019 132.0496 15.19145362802721
Epoch (UTC): 05 December 2021 19:40:15
Eccentricity: 0.0001491
inclination: 97.4451°
perigee height: 507 km
apogee height: 509 km
right ascension of ascending node: 345.1897°
argument of perigee: 93.7019°
revolutions per day: 15.19145362
mean anomaly at epoch: 132.0496°
orbit number at epoch: 80272

The dashed part of the orbit path shows where the satellite is in the earth's shadow,  

DLR